This is the latest recevied weather packets stored in our database for station/object N1ORT. If no packets are shown the sender has not sent any weather packets the latest 10 day(s).
| Time | Temp. | Humidity | Pressure | Rain* | Wind** | Luminosity | Snow |
|---|---|---|---|---|---|---|---|
| 1777943177 | 17.22° C | 47% | 1007 hPa | 0 mm | - | 0 W/m² | - |
| 1777942874 | 17.78° C | 46% | 1007 hPa | 0 mm | - | 0 W/m² | - |
| 1777942570 | 17.78° C | 47% | 1006.6 hPa | 0 mm | - | 0 W/m² | - |
| 1777942267 | 17.78° C | 45% | 1006.7 hPa | 0 mm | - | 0 W/m² | - |
| 1777941964 | 17.78° C | 45% | 1006.5 hPa | 0 mm | - | 0 W/m² | - |
| 1777941661 | 17.78° C | 44% | 1006.4 hPa | 0 mm | - | 0 W/m² | - |
| 1777941358 | 18.33° C | 43% | 1006.4 hPa | 0 mm | - | 0 W/m² | - |
| 1777941056 | 18.33° C | 42% | 1006.2 hPa | 0 mm | - | 0 W/m² | - |
| 1777940755 | 18.33° C | 40% | 1005.7 hPa | 0 mm | - | 0 W/m² | - |
| 1777940449 | 18.33° C | 40% | 1005.7 hPa | 0 mm | - | 0 W/m² | - |
| 1777940146 | 18.33° C | 41% | 1005.5 hPa | 0 mm | - | 0 W/m² | - |
| 1777939843 | 18.33° C | 39% | 1005.6 hPa | 0 mm | - | 0 W/m² | - |
| 1777939541 | 18.89° C | 40% | 1005.4 hPa | 0 mm | - | 0 W/m² | - |
| 1777939238 | 18.89° C | 39% | 1005.4 hPa | 0 mm | - | 0 W/m² | - |
| 1777938935 | 18.89° C | 40% | 1005.2 hPa | 0 mm | - | 1 W/m² | - |
| 1777938632 | 18.89° C | 38% | 1005.3 hPa | 0 mm | - | 2 W/m² | - |
| 1777938329 | 19.44° C | 37% | 1005 hPa | 0 mm | - | 3 W/m² | - |
| 1777938026 | 19.44° C | 38% | 1005 hPa | 0 mm | - | 4 W/m² | - |
| 1777937721 | 20° C | 37% | 1004.9 hPa | 0 mm | - | 6 W/m² | - |
| 1777937418 | 20° C | 35% | 1005 hPa | 0 mm | - | 9 W/m² | - |
| 1777937115 | 20° C | 38% | 1005 hPa | 0 mm | - | 12 W/m² | - |
| 1777936813 | 20° C | 35% | 1004.9 hPa | 0 mm | - | 15 W/m² | - |
| 1777936509 | 20° C | 37% | 1004.9 hPa | 0 mm | - | 18 W/m² | - |
| 1777936205 | 20.56° C | 34% | 1004.7 hPa | 0 mm | - | 21 W/m² | - |
| 1777935902 | 20.56° C | 34% | 1004.7 hPa | 0 mm | - | 27 W/m² | - |
* Rain latest hour (hover to see other rain measurements)
** Current wind speed in m/s (hover to see current wind gust speed)